Regional Weather Roundup
Issued by NWS Glasgow, MT

Home | Current Version | Previous Version | Text Only | Print | Product List | Glossary On
Versions: 1 2 3 4 5 6 7 8 9 10 11 12 13 14 15 16 17 18 19 20 21 22 23 24 25 26 27 28 29 30 31 32 33 34 35 36 37 38 39 40 41 42 43 44 45 46 47 48 49 50
000
ASUS45 KGGW 251415
RWRGGW
HOURLY REGIONAL WEATHER ROUNDUP FOR NORTHEAST MONTANA
NATIONAL WEATHER SERVICE GLASGOW MONTANA
800 AM MDT SUN SEP 25 2016

NOTE: "FAIR" INDICATES FEW OR NO CLOUDS BELOW 12,000 FEET WITH NO
SIGNIFICANT WEATHER AND/OR OBSTRUCTIONS TO VISISBILITY.

NORTHEAST MONTANA


CITY           SKY/WX    TMP DP  RH WIND       PRES   REMARKS
GLASGOW        CLEAR     39  34  82 W7        30.28S
PLENTYWOOD       N/A     44  37  76 NW12        N/A
WOLF POINT     SUNNY     42  36  79 W10       30.26R
JORDAN           N/A     42  40  92 W7        30.31S
WINNETT          N/A     45  38  76 S3          N/A
SIDNEY         SUNNY     46  38  73 NW18G25   30.19R
GLENDIVE       SUNNY     46  38  73 W10       30.26R
MALTA            N/A     39  38  96 SW6         N/A
SCOBEY           N/A     42  32  67 W7        30.18R
OPHEIM           N/A     41  32  70 W10       30.15S

FORT PECK REPORTS


CITY           SKY/WX    TMP DP  RH WIND       PRES   REMARKS
FORT PECK        N/A     43  36  76 W10         N/A
THE PINES        N/A     45  36  70 CALM        N/A

SOUTHEAST MONTANA


CITY           SKY/WX    TMP DP  RH WIND       PRES   REMARKS
BILLINGS       CLOUDY    48  38  68 SW9       30.38S
MILES CITY     SUNNY     45  39  79 NW9       30.32R
BAKER          SUNNY     42  36  79 W15       30.26R
LIVINGSTON     CLEAR     37  32  82 W9        30.42F

CENTRAL MONTANA


CITY           SKY/WX    TMP DP  RH WIND       PRES   REMARKS
HAVRE          CLEAR     41  39  93 SW12      30.31R
LEWISTOWN      CLEAR     39  35  86 SW5       30.36S
GREAT FALLS    CLEAR     43  34  70 S10       30.36S
CUT BANK       CLEAR     37  32  82 NW8       30.33R
HELENA         CLOUDY    45  33  63 W3        30.42R
BUTTE          CLOUDY    30  27  88 CALM      30.48S
BOZEMAN        CLEAR     34  31  88 SE7       30.46S

WESTERN MONTANA


CITY           SKY/WX    TMP DP  RH WIND       PRES   REMARKS
MISSOULA       CLOUDY    40  37  89 CALM      30.49R
KALISPELL      NOT AVBL

NORTH DAKOTA


CITY           SKY/WX    TMP DP  RH WIND       PRES   REMARKS
WILLISTON      SUNNY     48  38  68 NW21G28   30.15R
DICKINSON      SUNNY     45  39  79 W21G29    30.13R
MINOT          PTSUNNY   50  44  80 W30G39    29.96R
BISMARCK       MOSUNNY   52  46  80 NW18G35   30.00R

SOUTHERN SASKATCHEWAN


CITY           SKY/WX    TMP DP  RH WIND       PRES   REMARKS
REGINA         MOSUNNY   43  37  81 W15G21    30.11R
ESTEVAN        NOT AVBL
SWIFT CURRENT  CLEAR     39  34  81 W10       30.23R




USA.gov is the U.S. government's official web portal to all federal, state and local government web resources and services.